[[{"header":{"parameterUnit":"m.s-1","parameterCategory":1,"la1":30.2991,"la2":30.254,"lo1":-89.0895,"lo2":-89.0444,"dy":0.0017,"dx":0.0017,"nx":28,"ny":28,"refTime":"2026-02-11T03:00:00:Z","depth":0,"parameterNumber":2,"parameterNumberName":"U-component_of_WINDS"},"data":[0,0,0,0,0,0,0,0,0,0,0,0,0,0,0,0,0,0,0,0,0,0,0,0,0,0,0,0,0,0,0,0,0,0,0,0,0,0,0,0,0,0,0,0,0,0,0,0,0,0,0,0,0,0,0,0,0,0,0.6161,0.6162,0,0.6185,0.6185,0.6186,0.6186,0.6186,0.6185,0.6185,0.6209,0.621,0.6211,0,0,0,0,0,0,0,0,0,0,0,0,0,0.6116,0.6117,0.6161,0.6162,0.6162,0.6185,0.6185,0.6186,0.6186,0.6186,0.6185,0.6185,0.6209,0.621,0.6211,0,0,0,0,0,0,0,0,0,0,0,0,0,0.6137,0.6117,0.6161,0.6165,0.6165,0.6185,0.6185,0.6186,0.6186,0.6186,0.6185,0.6185,0.6208,0.621,0.6211,0.6229,0,0,0.6215,0.6216,0,0,0,0,0,0,0,0,0.6136,0.6139,0.6164,0.6165,0.6165,0.6182,0.6178,0.62,0.6186,0.6178,0.6185,0.6184,0.62,0.6202,0.6208,0.623,0.6231,0.6215,0.6216,0.6217,0.6217,0,0,0,0,0,0,0,0.6134,0.6138,0.6171,0.6164,0.6165,0.6165,0.6168,0.6182,0.6192,0.6179,0.6179,0.6182,0.6201,0.6207,0.6208,0.6231,0.6215,0.6217,0.6218,0.6218,0.6269,0.627,0,0,0,0,0,0,0.6132,0.6137,0.617,0.6172,0.6149,0.6166,0.6169,0.6177,0.6191,0.6193,0.6182,0.6182,0.6204,0.6207,0.6209,0.6232,0.6217,0.6218,0.6219,0.6269,0.627,0.627,0,0,0,0,0,0,0.6131,0.6135,0.6169,0.6154,0.6158,0.6168,0.6177,0.6178,0.6184,0.6194,0.6195,0.6187,0.6204,0.6207,0.6224,0.6232,0.6219,0.622,0.6268,0.6269,0.627,0.6276,0,0,0,0,0,0,0.613,0.6135,0.6142,0.6154,0.6159,0.6184,0.6177,0.6179,0.6186,0.6186,0.6198,0.62,0.6204,0.6222,0.6225,0.6234,0.6221,0.6268,0.6269,0.627,0.6275,0.6277,0.6279,0,0,0,0,0,0.6128,0.6143,0.6142,0.6146,0.6168,0.6184,0.6187,0.6191,0.6187,0.6194,0.62,0.62,0.6231,0.6224,0.6228,0.6237,0.6267,0.6268,0.6269,0.6274,0.6277,0.6278,0,0,0,0,0,0,0.6131,0.6144,0.6144,0.6163,0.6172,0.6184,0.6193,0.6193,0.6205,0.6204,0.6208,0.6211,0.6228,0.6234,0.6226,0.6255,0.6248,0.625,0.6251,0.6253,0.6255,0.6253,0.6222,0,0,0,0,0,0.6134,0.6146,0.6156,0.6172,0.6177,0.6184,0.6191,0.6194,0.6204,0.6208,0.6216,0.6225,0.6237,0.6245,0.6257,0.6275,0.6279,0.6284,0.6285,0.6287,0.6289,0.63,0.6302,0.6274,0.6274,0.6274,0,0,0.6139,0.6148,0.6155,0.6173,0.618,0.6193,0.6188,0.6201,0.621,0.621,0.6227,0.6232,0.6243,0.6261,0.627,0.6267,0.6297,0.6288,0.6289,0.6291,0.6301,0.6304,0.6306,0.6275,0.6275,0.6275,0,0,0.6157,0.6164,0.6178,0.6186,0.6198,0.6203,0.6206,0.6218,0.6222,0.6238,0.6238,0.6249,0.627,0.6278,0.6285,0.6304,0.6304,0.6308,0.6317,0.6328,0.633,0.6332,0.634,0.6343,0.631,0.631,0.631,0,0.6163,0.6182,0.6185,0.6199,0.6207,0.6207,0.6221,0.6228,0.6243,0.6248,0.6245,0.6271,0.6278,0.6298,0.6303,0.6308,0.6312,0.6307,0.6329,0.6331,0.6333,0.6341,0.6344,0.631,0.631,0.631,0.631,0,0.6189,0.6202,0.6211,0.6226,0.6235,0.6249,0.6254,0.6262,0.6264,0.6269,0.6286,0.6295,0.6308,0.6313,0.6314,0.6333,0.6331,0.6328,0.6322,0.6337,0.6344,0.6347,0.6311,0.6311,0.631,0.631,0,0,0.6209,0.6226,0.6229,0.6236,0.6249,0.6259,0.6273,0.6286,0.6293,0.6303,0.6315,0.6332,0.633,0.6337,0.6339,0.6348,0.6365,0.6344,0.6345,0.6349,0.6387,0.639,0.6394,0.6364,0.6365,0.6365,0.6387,0,0.6229,0.6254,0.6257,0.6279,0.6292,0.6292,0.6303,0.6312,0.6317,0.6328,0.6333,0.6346,0.6341,0.6346,0.6355,0.6361,0.6373,0.6359,0.6376,0.6376,0.6375,0.6397,0.6401,0.6421,0.6389,0.639,0.639,0,0.6256,0.6267,0.629,0.6301,0.6306,0.6317,0.633,0.634,0.635,0.6353,0.6362,0.6363,0.6377,0.6369,0.6389,0.6379,0.6386,0.639,0.6391,0.6394,0.6385,0.6402,0.6427,0.6431,0.6395,0.6394,0.6394,0,0.627,0.629,0.6307,0.6313,0.6326,0.6334,0.6339,0.6349,0.6357,0.6368,0.6373,0.6385,0.6392,0.6401,0.6405,0.6399,0.6425,0.6417,0.6428,0.6428,0.6435,0.6435,0.6463,0.6437,0.6437,0.6437,0.6437,0,0.6292,0.6307,0.6314,0.6324,0.6341,0.6344,0.636,0.6365,0.6374,0.6385,0.6385,0.6396,0.64,0.6412,0.6415,0.6431,0.6434,0.6437,0.6438,0.6438,0.6438,0.6443,0.6443,0.6438,0.6438,0.6438,0.6437,0,0.6312,0.6317,0.6336,0.6346,0.6349,0.6361,0.637,0.638,0.6385,0.6399,0.6403,0.641,0.6423,0.6428,0.6444,0.6446,0.6465,0.6464,0.6462,0.6463,0.6474,0.6473,0.6508,0.6513,0.6483,0.6483,0.6483,0,0.6327,0.6338,0.635,0.6358,0.6364,0.6376,0.6385,0.6388,0.6396,0.6409,0.6417,0.643,0.6441,0.6463,0.6469,0.6481,0.6482,0.6493,0.6484,0.6483,0.6483,0.6483,0.6485,0.6495,0.6495,0.6496,0.6496,0,0.6353,0.6355,0.6366,0.6379,0.6389,0.6399,0.6408,0.6415,0.642,0.6429,0.6443,0.6451,0.6468,0.6481,0.6493,0.6499,0.6499,0.6498,0.6502,0.6503,0.6502,0.6504,0.6468,0.6498,0.6498,0.6498,0.6498,0.6497,0.6371,0.6382,0.6392,0.6405,0.6413,0.6422,0.6432,0.6437,0.6449,0.6463,0.6464,0.6479,0.6488,0.6505,0.6511,0.6523,0.652,0.6525,0.6526,0.6528,0.6529,0.6498,0.6525,0.6525,0.6525,0.6525,0.6525,0,0.6399,0.6405,0.6417,0.6431,0.6441,0.6439,0.6449,0.6458,0.6472,0.6481,0.6491,0.6507,0.652,0.6527,0.654,0.6548,0.6548,0.6551,0.6552,0.6553,0.6531,0.6527,0.6551,0.6551,0.6551,0.6551,0.6551,0.6551,0.6414,0.6432,0.6435,0.6456,0.6462,0.6477,0.6483,0.6492,0.6499,0.6517,0.6528,0.6532,0.654,0.6554,0.6565,0.6567,0.6572,0.6576,0.6578,0.6557,0.6555,0.6552,0.6549,0.6577,0.6577,0.6599,0.66,0.66]},{"header":{"parameterUnit":"m.s-1","parameterCategory":1,"la1":30.2991,"la2":30.254,"lo1":-89.0895,"lo2":-89.0444,"dy":0.0017,"dx":0.0017,"nx":28,"ny":28,"refTime":"2026-02-11T03:00:00:Z","depth":0,"parameterNumber":3,"parameterNumberName":"V-component_of_WINDS"},"data":[0,0,0,0,0,0,0,0,0,0,0,0,0,0,0,0,0,0,0,0,0,0,0,0,0,0,0,0,0,0,0,0,0,0,0,0,0,0,0,0,0,0,0,0,0,0,0,0,0,0,0,0,0,0,0,0,0,0,0.8613,0.8613,0,0.8589,0.8588,0.8588,0.8562,0.8561,0.8561,0.8561,0.8536,0.8535,0.8535,0,0,0,0,0,0,0,0,0,0,0,0,0,0.8636,0.8635,0.8613,0.8612,0.8612,0.8589,0.8588,0.8588,0.8562,0.8561,0.8561,0.856,0.8536,0.8535,0.8535,0,0,0,0,0,0,0,0,0,0,0,0,0,0.862,0.8635,0.8613,0.8596,0.8595,0.8589,0.8588,0.8588,0.8562,0.8561,0.8561,0.856,0.8536,0.8536,0.8535,0.8543,0,0,0.8534,0.8533,0,0,0,0,0,0,0,0,0.8621,0.8619,0.8599,0.8597,0.8595,0.8578,0.8587,0.8573,0.8562,0.8574,0.8561,0.856,0.855,0.8548,0.8545,0.8542,0.8541,0.8534,0.8533,0.8533,0.8533,0,0,0,0,0,0,0,0.8622,0.862,0.8603,0.8599,0.8597,0.859,0.8587,0.8584,0.8566,0.8573,0.8571,0.8569,0.8549,0.8546,0.8544,0.8541,0.8534,0.8533,0.8533,0.8533,0.8543,0.8544,0,0,0,0,0,0,0.8626,0.8621,0.8604,0.8602,0.8607,0.859,0.8587,0.8584,0.8566,0.8562,0.8569,0.8568,0.8547,0.8545,0.8543,0.8552,0.8533,0.8533,0.8532,0.8543,0.8543,0.8544,0,0,0,0,0,0,0.8626,0.8624,0.8605,0.8611,0.8608,0.859,0.8587,0.8584,0.858,0.8563,0.8559,0.8569,0.8546,0.8544,0.8544,0.8551,0.8532,0.8532,0.8542,0.8543,0.8543,0.8569,0,0,0,0,0,0,0.8627,0.8625,0.8628,0.8612,0.8608,0.8606,0.8588,0.8584,0.858,0.8577,0.8562,0.8559,0.8546,0.8544,0.8543,0.855,0.8532,0.8541,0.8542,0.8543,0.8568,0.8571,0.8574,0,0,0,0,0,0.8628,0.8636,0.8628,0.8627,0.8612,0.8606,0.8604,0.8589,0.858,0.8583,0.8572,0.8559,0.855,0.8545,0.8543,0.855,0.8541,0.8542,0.8543,0.8567,0.857,0.8574,0,0,0,0,0,0,0.8655,0.8634,0.8625,0.8628,0.8619,0.8602,0.8605,0.8594,0.8587,0.8585,0.8566,0.8563,0.8565,0.8557,0.8551,0.8556,0.8543,0.8544,0.8562,0.8565,0.8568,0.8571,0.8531,0,0,0,0,0,0.8661,0.8658,0.864,0.8645,0.8641,0.8624,0.8621,0.861,0.86,0.8596,0.8584,0.8575,0.857,0.8567,0.8561,0.8566,0.8562,0.857,0.8573,0.8575,0.8577,0.8579,0.8582,0.8548,0.8548,0.8548,0,0,0.8674,0.8662,0.8662,0.865,0.8642,0.8639,0.8621,0.8619,0.8617,0.8596,0.8595,0.8586,0.8574,0.8576,0.8576,0.8569,0.8585,0.8577,0.8579,0.8579,0.858,0.8583,0.8586,0.8549,0.8549,0.8548,0,0,0.8696,0.8687,0.869,0.8682,0.8669,0.8658,0.8658,0.8643,0.8636,0.8634,0.8618,0.8615,0.8607,0.8599,0.8594,0.8612,0.8601,0.8611,0.8627,0.8629,0.8632,0.8634,0.8641,0.8643,0.8612,0.8612,0.8612,0,0.8714,0.871,0.8693,0.8692,0.8687,0.8667,0.867,0.8663,0.8649,0.8646,0.8638,0.8627,0.8618,0.8618,0.8622,0.8619,0.8619,0.8613,0.8632,0.8635,0.8636,0.8643,0.8645,0.8614,0.8613,0.8613,0.8613,0,0.8732,0.8729,0.8733,0.8721,0.8716,0.8717,0.87,0.8697,0.8686,0.8676,0.8674,0.8662,0.8653,0.8652,0.8642,0.8651,0.8647,0.8636,0.8623,0.8641,0.8647,0.8649,0.8616,0.8615,0.8615,0.8614,0,0,0.8772,0.8749,0.8751,0.8745,0.8729,0.8727,0.8726,0.8718,0.8716,0.8707,0.8706,0.8699,0.8689,0.8683,0.8671,0.8673,0.8688,0.8662,0.8661,0.8668,0.8698,0.8707,0.871,0.868,0.868,0.8681,0.8699,0,0.8792,0.8791,0.8775,0.8778,0.8775,0.8756,0.8755,0.8745,0.8735,0.8731,0.8719,0.8715,0.8701,0.8698,0.8698,0.8686,0.8694,0.8685,0.8679,0.8679,0.8684,0.8713,0.8722,0.874,0.8701,0.8701,0.8702,0,0.8816,0.8808,0.8811,0.8795,0.8793,0.8793,0.8784,0.878,0.8768,0.8761,0.8754,0.874,0.8738,0.8725,0.8722,0.8716,0.8713,0.8706,0.8707,0.8707,0.8693,0.8714,0.8746,0.8749,0.8705,0.8705,0.8704,0,0.8845,0.8835,0.8836,0.8831,0.8812,0.8813,0.8805,0.8792,0.8788,0.878,0.8777,0.8768,0.8764,0.8757,0.8742,0.8733,0.8741,0.8726,0.8734,0.8735,0.8738,0.8738,0.877,0.8734,0.8734,0.8734,0.8734,0,0.887,0.8873,0.8849,0.8849,0.8851,0.8833,0.8835,0.8825,0.8814,0.8812,0.8794,0.8793,0.8771,0.8767,0.8755,0.8754,0.8752,0.8746,0.8743,0.8748,0.8749,0.8747,0.8745,0.8735,0.8735,0.8735,0.8734,0,0.8904,0.8888,0.8887,0.8869,0.8864,0.8867,0.8851,0.885,0.8838,0.8836,0.8834,0.8816,0.881,0.8793,0.8783,0.8774,0.8778,0.8771,0.8782,0.878,0.879,0.8789,0.8822,0.8826,0.8787,0.8787,0.8787,0,0.8921,0.8923,0.8905,0.8902,0.8895,0.8891,0.8886,0.8867,0.8863,0.885,0.8851,0.8843,0.8836,0.8828,0.8813,0.8805,0.8799,0.8811,0.8797,0.8803,0.88,0.88,0.88,0.8814,0.8815,0.8815,0.8815,0,0.8954,0.8946,0.894,0.8931,0.8927,0.8919,0.891,0.8909,0.8888,0.8884,0.8878,0.8872,0.8862,0.8855,0.8844,0.8835,0.8822,0.8819,0.8821,0.8827,0.8833,0.8831,0.8791,0.8819,0.8819,0.8818,0.8818,0.8818,0.8981,0.8981,0.8968,0.8962,0.8954,0.8946,0.8944,0.8932,0.8926,0.8916,0.8905,0.89,0.8887,0.8872,0.8864,0.886,0.8853,0.8855,0.8856,0.8857,0.8859,0.8833,0.8858,0.8858,0.8857,0.8857,0.8857,0,0.9013,0.9004,0.8998,0.8986,0.8982,0.8969,0.8958,0.8955,0.8951,0.894,0.8934,0.8926,0.8919,0.8903,0.8895,0.8894,0.8888,0.8892,0.8893,0.8891,0.8866,0.8866,0.8898,0.8898,0.8898,0.8898,0.8898,0.8898,0.9029,0.903,0.902,0.9015,0.9005,0.9,0.8995,0.8988,0.8979,0.8972,0.8966,0.8955,0.8943,0.8933,0.8925,0.8921,0.8919,0.8926,0.892,0.8897,0.8893,0.8889,0.8889,0.8925,0.8925,0.8945,0.8945,0.8945]}]]